Helicity
159 114 135 254 184 232 206 186 179 175 180 149 136 132 137 131 112 104 106 110 103 89 79 74 73 74 61 54 49 23 13 33 61 75 64 68 60 69 80 93 95 80 79
230 272 86 192 175 196 168 173 177 163 147 113 106 98 109 103 99 104 96 104 100 92 83 68 56 52 48 57 46 14 -43 0 42 55 67 58 60 64 60 64 75 70 88
88 173 314 117 151 158 155 152 163 148 123 107 99 89 102 106 111 105 109 106 92 82 64 50 50 52 56 64 62 60 35 -33 67 48 58 36 17 49 59 52 63 66 67
-17 157 421 376 13 153 153 151 143 136 123 103 94 103 104 113 117 112 101 89 72 56 49 46 48 41 43 45 65 71 70 175 125 50 26 23 34 44 43 43 44 45 46
-50 -73 149 270 153 155 163 156 147 155 133 102 112 107 104 109 111 99 82 65 56 49 45 46 42 31 34 48 68 84 61 69 79 54 15 -2 0 28 44 49 51 46 67
34 84 224 39 59 191 183 180 198 177 146 127 121 103 112 107 105 91 69 60 51 44 38 27 19 7 11 33 87 119 55 69 33 15 -5 6 -9 32 36 40 41 46 57
182 232 304 331 316 349 172 234 220 192 147 125 118 100 121 108 110 90 71 61 46 35 28 20 14 3 9 37 109 167 52 35 -5 -11 -9 -14 1 34 39 44 44 52 60
209 252 222 220 354 178 100 265 255 209 169 147 117 97 112 101 110 89 72 58 37 28 25 19 10 10 21 54 122 180 110 33 20 3 -17 -20 28 36 41 41 46 55 62
252 284 221 288 311 359 109 631 396 310 271 196 134 116 130 114 108 99 80 56 39 36 31 23 23 -3 43 75 136 192 135 43 21 -13 -10 -24 26 30 36 39 48 48 56
202 249 283 248 264 244 291 46 234 111 222 216 213 196 173 123 108 94 83 56 39 32 26 32 -4 32 58 101 124 175 150 104 14 -28 -30 -17 24 27 30 35 40 47 53
196 213 280 246 260 194 311 279 73 84 59 119 172 194 165 132 107 96 60 47 32 22 37 -9 20 26 47 77 77 131 76 21 15 -24 -29 18 26 24 33 40 41 43 44
192 198 189 234 193 163 162 142 101 90 164 119 120 161 128 114 91 76 56 55 49 25 26 16 26 24 46 43 28 91 64 25 8 -9 -17 31 33 34 29 32 39 44 44
178 165 134 199 116 123 72 127 36 -6 98 -45 53 90 87 91 74 74 50 53 28 20 8 18 15 1 11 21 36 58 58 34 24 11 21 41 44 42 40 42 43 47 38
160 181 178 148 127 157 154 112 48 7 -28 23 14 42 49 64 58 27 56 14 23 10 14 9 -8 6 34 32 27 40 51 32 30 13 23 58 52 49 49 44 38 42 51
137 162 184 212 157 146 243 181 120 103 25 50 21 20 36 49 -1 65 24 17 16 18 6 3 21 28 29 23 19 36 42 58 37 23 10 66 70 69 60 54 54 52 67
143 146 170 176 202 146 94 107 176 158 33 -22 14 -7 -30 -25 -30 7 5 10 16 -9 19 25 31 21 18 22 27 36 40 58 45 32 24 35 64 85 98 84 72 89 93
115 121 153 97 76 97 97 206 204 207 18 -4 -15 -22 -38 -77 -6 21 27 38 -4 17 50 48 47 31 27 31 35 37 40 64 77 48 58 55 104 152 134 106 102 115 99
105 88 86 74 94 102 40 61 61 1 -31 -20 44 -11 -98 -44 6 58 0 -19 1 46 69 74 75 54 42 51 40 39 46 61 66 95 71 105 120 142 146 141 109 107 92
86 100 110 73 87 68 73 7 -18 -22 27 -77 -127 -155 -49 -11 -37 -21 -4 23 66 104 135 124 92 83 71 81 73 70 83 93 84 92 139 126 130 149 157 134 114 99 97
10 -7 10 0 11 -16 -70 -13 6 -43 -87 -146 -121 -78 -50 -45 -25 6 29 71 126 145 154 145 122 93 104 106 113 146 139 120 99 122 124 161 166 222 228 173 152 137 128
-48 -82 -50 -60 -70 -96 -92 -76 -129 -151 -112 -97 -85 -69 -43 -17 14 43 90 119 141 172 161 149 160 131 144 144 192 189 154 126 164 166 150 140 151 195 195 166 168 143 168
-56 -133 -45 -57 -80 -101 -69 -58 -84 -58 -57 -54 -61 -43 -6 -1 39 97 143 146 139 167 159 157 184 183 170 221 251 231 244 239 223 211 189 168 145 175 165 206 179 218 177
5 -23 -41 -54 -62 -62 -33 -40 -65 -48 -56 -55 -60 -37 -3 69 89 133 147 142 172 181 148 177 198 212 229 272 244 257 266 276 258 237 164 182 184 202 216 220 208 226 235
81 13 3 -40 -45 -12 -1 4 -13 1 2 -11 -7 5 70 140 144 151 172 176 244 242 229 192 205 249 289 240 345 296 335 293 313 302 294 176 227 211 201 210 234 219 258
102 86 77 53 66 38 21 41 13 19 36 27 8 13 104 168 201 167 181 183 204 249 223 225 316 298 378 325 556 410 406 312 143 197 242 209 239 242 185 226 221 225 279
134 123 109 83 68 35 -8 -28 30 63 63 97 118 117 159 236 238 191 209 265 231 281 281 273 331 370 369 398 358 387 326 352 189 200 274 191 174 164 250 220 186 248 348
Wind_Speed
13 2 9 12 18 14 13 12 14 16 19 21 24 29 34 36 38 40 41 40 40 40 41 41 40 42 44 45 48 50 53 55 54 51 51 50 49 49 49 48 48 48 48
7 7 14 21 28 21 18 16 15 16 19 20 24 28 36 38 40 41 40 39 39 39 39 39 40 40 42 43 45 46 51 54 51 49 47 47 48 49 49 48 48 49 49
13 4 4 34 25 25 23 18 18 18 17 20 23 28 33 38 39 39 38 37 38 39 39 38 38 38 38 41 42 40 37 34 46 49 47 48 50 49 49 49 48 48 49
42 37 24 41 94 26 25 22 20 21 20 20 23 26 31 37 39 41 39 38 38 38 38 38 36 36 35 36 40 41 40 46 46 48 46 45 47 49 49 48 48 49 50
48 52 46 29 33 35 30 27 26 25 23 23 26 28 33 39 41 41 40 38 37 37 37 36 34 33 31 31 34 37 39 44 44 45 46 48 48 49 48 48 49 50 49
37 30 21 24 48 38 31 31 28 26 25 25 31 35 35 39 40 40 38 38 36 36 36 35 33 31 30 31 36 35 41 42 46 46 48 49 48 47 48 49 49 49 49
27 23 14 5 19 14 36 36 34 31 28 28 31 33 33 38 40 40 38 37 36 35 34 32 31 28 28 31 36 36 39 42 45 47 49 47 47 48 48 49 49 50 51
27 25 21 17 20 46 90 48 39 36 34 32 31 34 35 39 40 39 37 35 34 33 31 29 29 27 24 28 32 36 35 40 44 48 47 45 45 46 47 49 51 52 52
26 20 20 22 26 30 34 24 30 30 30 32 32 34 34 36 38 37 35 32 31 30 28 27 27 29 24 26 29 31 31 39 42 44 44 43 44 45 47 48 50 51 53
24 21 19 21 22 17 14 9 4 22 22 19 27 34 33 33 32 35 33 29 28 30 27 26 29 27 25 24 26 32 33 38 41 41 41 40 41 44 45 47 49 50 51
20 18 17 19 25 30 34 22 19 17 22 23 23 29 27 28 27 26 27 26 23 24 26 25 26 25 23 25 27 28 32 33 33 34 36 37 39 41 43 45 47 49 50
18 15 15 20 24 35 39 37 28 16 10 16 19 19 22 25 27 28 24 19 20 24 22 24 22 20 23 26 27 28 30 29 31 34 35 34 36 38 40 42 45 46 48
17 17 15 19 24 32 42 39 38 25 21 57 33 26 25 27 30 25 24 16 13 18 20 15 17 23 22 24 27 28 29 27 29 31 32 32 33 35 37 39 41 43 44
13 13 14 20 25 30 33 37 49 55 46 44 32 33 30 30 28 27 21 20 14 7 10 16 19 22 24 25 24 25 26 28 29 30 31 30 31 32 34 34 36 37 41
14 11 11 15 18 18 26 18 26 23 32 22 30 29 23 24 29 22 19 14 9 21 27 17 20 22 22 22 23 25 27 29 28 29 31 29 28 29 29 31 32 34 36
8 10 7 7 8 10 26 23 23 17 34 25 26 24 24 26 27 21 17 9 4 48 17 14 20 21 20 21 23 26 28 29 27 28 30 28 26 27 28 30 32 34 37
12 11 11 11 13 20 28 22 21 15 17 23 24 26 27 25 21 17 10 28 56 30 12 15 18 19 18 21 22 24 26 27 27 25 27 27 25 24 25 28 31 32 37
14 14 8 9 14 16 29 38 43 35 27 27 23 17 25 17 20 20 60 55 33 17 10 11 13 22 18 16 18 21 20 23 24 22 21 24 23 25 24 24 27 31 37
24 10 15 21 28 23 28 43 42 38 30 29 28 67 68 65 63 51 39 25 15 6 7 10 24 23 21 17 15 15 13 17 18 22 24 21 18 19 20 20 22 26 31
33 32 36 39 48 54 64 64 66 72 75 71 71 69 65 57 47 35 19 10 3 4 9 19 18 19 24 17 18 13 12 13 15 20 18 21 21 19 17 19 21 25 29
54 57 69 77 79 79 76 78 79 76 69 67 67 61 52 46 37 28 10 6 4 2 11 22 23 19 18 16 27 33 22 18 18 23 21 22 22 22 19 23 25 26 25
64 71 71 76 75 73 74 71 69 68 65 57 55 49 46 40 32 22 13 6 9 7 18 20 17 24 19 18 29 36 44 42 30 25 28 29 29 30 28 29 26 29 26
65 65 66 68 68 66 65 62 62 56 53 52 49 47 38 36 32 21 19 15 11 9 10 14 18 24 28 31 31 38 42 45 42 35 30 33 37 31 29 30 31 31 31
60 63 62 63 62 60 59 54 54 51 46 43 43 41 37 34 31 29 28 22 11 10 12 18 21 25 32 27 39 40 43 41 42 43 38 37 34 37 36 37 38 41 37
54 57 58 59 57 56 53 49 48 42 38 35 37 41 33 29 31 29 22 11 12 9 11 15 26 33 42 43 40 32 41 46 45 46 52 49 44 43 34 36 40 45 40
49 49 51 51 52 56 56 57 49 49 42 38 32 36 27 24 25 25 21 13 13 11 12 10 19 29 32 33 36 38 40 46 45 43 50 56 56 48 45 45 49 48 40
Wind_Direction
312 303 213 195 211 193 184 164 134 115 103 94 86 81 78 79 81 82 81 80 77 73 69 64 59 57 57 56 55 55 56 53 49 45 43 40 36 34 32 30 29 26 27
330 315 259 233 227 203 191 173 147 130 116 102 91 85 89 87 87 86 83 81 77 73 68 63 60 58 57 55 53 52 59 51 44 42 36 35 35 33 33 29 28 28 26
292 97 359 237 238 216 188 174 154 141 130 113 97 96 95 93 91 88 84 81 77 73 68 63 60 57 54 52 47 37 24 22 47 41 36 33 37 33 31 30 29 28 26
281 283 272 282 221 214 198 183 170 151 138 121 108 105 99 96 92 89 86 83 79 74 69 64 57 54 51 45 44 37 33 50 44 37 33 31 33 33 34 33 31 31 32
292 288 294 241 193 201 195 179 166 153 141 129 118 111 102 99 96 92 89 85 80 74 68 63 56 51 46 36 27 24 44 48 41 35 35 36 36 36 34 32 31 33 30
313 318 342 160 165 201 185 181 175 160 149 138 125 119 109 105 101 95 92 86 80 74 70 64 57 50 44 33 21 24 58 47 42 39 39 39 38 36 34 34 34 32 30
327 341 4 45 224 247 216 189 175 163 151 141 134 127 114 109 104 100 94 88 80 74 68 60 53 46 42 32 25 31 55 51 48 45 44 38 39 37 35 36 34 35 33
332 324 317 315 293 323 304 183 172 164 153 145 138 131 119 112 107 104 97 90 81 75 67 57 49 40 33 29 22 21 47 52 52 52 45 39 38 38 36 37 39 39 38
332 338 339 353 337 341 346 129 167 165 159 147 139 133 121 113 109 105 98 89 83 72 63 54 45 40 29 25 16 5 20 57 54 52 46 40 41 41 41 38 37 38 39
341 353 350 34 35 20 334 2 152 161 143 137 149 127 121 112 108 105 99 90 81 75 61 49 47 35 28 14 2 3 36 54 56 50 42 39 40 41 39 39 38 38 38
354 2 356 31 59 61 69 105 130 169 127 133 139 125 123 113 107 103 100 93 81 70 60 52 43 32 18 5 356 357 40 46 39 39 38 44 41 37 38 39 37 36 36
353 5 10 52 74 78 87 96 114 182 149 150 141 133 114 109 106 103 97 92 77 68 52 50 37 10 348 344 1 3 25 39 40 43 44 45 41 40 42 40 40 40 36
30 63 60 75 80 87 96 96 105 116 130 124 114 117 113 108 106 101 94 80 68 61 52 13 349 331 353 8 13 10 27 27 33 37 41 46 45 45 42 41 38 36 34
38 64 76 89 89 95 101 116 124 132 125 120 119 118 117 110 109 106 95 90 73 17 319 307 335 6 6 13 4 359 1 27 31 35 37 43 44 39 40 41 39 36 33
53 61 69 103 98 104 114 144 124 133 126 120 125 121 117 115 114 104 101 90 62 253 249 315 355 352 350 354 351 353 349 16 25 29 37 39 40 41 41 38 38 33 27
31 59 69 75 98 119 121 127 132 142 127 124 126 126 123 116 115 109 108 92 310 203 292 11 2 11 11 356 343 354 357 9 37 34 36 45 44 45 40 33 26 19 15
84 85 79 85 101 112 121 127 133 171 132 126 127 128 128 118 112 116 115 241 196 124 37 15 29 8 4 357 9 10 12 11 24 37 38 39 47 41 35 26 21 16 8
94 109 87 95 122 120 130 131 132 134 131 129 131 131 127 118 117 238 179 173 146 105 51 27 9 333 356 15 16 19 27 22 18 28 36 32 34 30 25 21 17 12 4
94 93 102 119 127 126 132 138 137 135 135 131 129 158 179 187 176 159 149 132 119 18 3 341 310 325 335 352 356 16 38 23 25 17 9 19 20 17 19 18 12 7 5
98 96 109 117 124 125 135 143 146 160 170 162 164 170 172 167 158 148 135 126 47 83 316 307 314 322 327 340 341 352 358 12 7 358 7 7 4 360 5 7 2 358 356
128 125 134 142 150 153 155 151 158 166 161 169 174 168 164 165 162 157 150 158 167 194 301 301 305 312 322 330 327 325 329 333 334 334 340 341 343 342 341 340 343 348 351
137 143 139 146 150 156 157 163 168 163 168 164 165 165 170 168 164 162 168 190 182 282 300 297 292 304 301 304 313 316 312 315 318 319 326 327 324 327 322 327 332 339 342
144 145 147 154 160 164 159 156 162 160 165 169 171 173 169 170 168 163 167 177 190 217 252 281 285 291 295 299 305 313 313 311 314 318 316 321 320 318 321 322 322 325 330
152 157 158 162 165 159 159 159 164 164 163 167 171 172 173 171 171 176 182 188 204 235 261 289 293 294 299 291 303 304 315 320 314 316 332 330 321 319 314 315 316 319 322
153 158 160 164 161 163 163 162 167 168 171 169 173 177 174 174 177 181 184 205 218 242 262 302 310 296 300 297 299 299 311 310 315 315 319 326 331 327 313 312 312 313 314
157 157 160 163 168 171 174 179 174 179 176 176 176 179 181 182 181 185 194 189 203 235 250 256 323 321 305 303 304 308 301 305 304 310 318 320 320 322 328 321 316 310 308